Weather History for Bettles, AK

Change the Weather History Date:

Monday, March 25, 2013

  Actual Average Record
Temperature  
Mean Temperature -6 °F -  
Max Temperature 3 °F 20 °F 42 °F (1987)
Min Temperature -16 °F -3 °F -34 °F (2007)
Degree Days  
Heating Degree Days 72    
Moisture  
Dew Point -8 °F    
Average Humidity 78    
Maximum Humidity 85    
Minimum Humidity 64    
Precipitation  
Precipitation 0.12 in - - ()
Snow  
Snow 0.00 in - - ()
Snow Depth 22.00 in    
Sea Level Pressure  
Sea Level Pressure 29.75 in    
Wind  
Wind Speed 5 mph (East)    
Max Wind Speed 9 mph    
Max Gust Speed -    
Visibility 3 miles    
Events Fog , Snow    
Averages and records for this station are not official NWS values.
T = Trace of Precipitation, MM = Missing Value Source: NWS Daily Summary

Daily Weather History Graph

Daily Weather History Graph

Search for Another Location

Airport:

Trip Planner

Search our weather history database for the weather conditions in past years. The results will help you decide how hot, cold, wet, or windy it might be!

Date:

Astronomy

Mar. 25, 2013 Rise Set
Actual Time 7:44 AM AKDT 8:41 PM AKDT
Civil Twilight 6:50 AM AKDT 9:36 PM AKDT
Nautical Twilight 5:40 AM AKDT 10:46 PM AKDT
Astronomical Twilight 4:10 AM AKDT 12:20 AM AKDT
Moon 7:06 PM AKDT (3/25) 7:03 AM AKDT (3/25)
Length of Visible Light 14h 46m
Length of Day
12h 57m
Waxing Gibbous, 97% of the Moon is Illuminated
Mar 25
Waxing Gibbous
Mar 27
Full
Apr 2
Last Quarter
Apr 10
New
Apr 18
First Quarter

Hourly Weather History & Observations

Time (AKDT) Temp. Windchill Dew Point Humidity Pressure Visibility Wind Dir Wind Speed Gust Speed Precip Events Conditions
12:53 AM -9.9 °F - -15.0 °F 78% 29.94 in 10.0 mi Calm Calm - N/A   Scattered Clouds
1:53 AM -9.0 °F -18.2 °F -14.1 °F 79% 29.93 in 10.0 mi North 3.5 mph - N/A   Scattered Clouds
2:53 AM -8.0 °F -16.9 °F -13.0 °F 79% 29.91 in 10.0 mi NNW 3.5 mph - N/A   Overcast
3:53 AM -6.0 °F -16.9 °F -11.9 °F 75% 29.89 in 5.0 mi North 4.6 mph - N/A Snow Light Snow
4:06 AM -7.6 °F -16.5 °F -11.2 °F 84% 29.81 in 1.8 mi North 3.5 mph - N/A Snow Light Snow
4:30 AM -7.6 °F -18.8 °F -11.2 °F 84% 29.80 in 2.0 mi NNW 4.6 mph - N/A Snow Light Snow
4:53 AM -6.0 °F -16.9 °F -11.0 °F 79% 29.87 in 3.0 mi NNW 4.6 mph - N/A Snow Light Snow
5:53 AM -5.1 °F -13.6 °F -9.9 °F 80% 29.84 in 3.0 mi North 3.5 mph - N/A Snow Light Snow
6:26 AM -5.8 °F -18.4 °F -9.4 °F 84% 29.75 in 2.5 mi North 5.8 mph - N/A Snow Light Snow
6:53 AM -5.1 °F -13.6 °F -9.9 °F 80% 29.83 in 2.5 mi North 3.5 mph - N/A Snow Light Snow
7:35 AM -4.0 °F -12.4 °F -9.4 °F 78% 29.74 in 1.5 mi North 3.5 mph - N/A Snow Light Snow
7:53 AM -4.0 °F -12.4 °F -9.0 °F 79% 29.80 in 1.2 mi North 3.5 mph - N/A Snow Light Snow
8:38 AM -2.2 °F -12.5 °F -7.6 °F 78% 29.71 in 1.0 mi NNW 4.6 mph - N/A Snow Light Snow
8:53 AM -2.0 °F -13.9 °F -7.1 °F 79% 29.78 in 1.0 mi NW 5.8 mph - N/A Snow Light Snow
9:31 AM -2.2 °F -10.4 °F -7.6 °F 78% 29.69 in 1.0 mi NNW 3.5 mph - N/A Snow Light Snow
9:53 AM -0.9 °F -11.0 °F -7.1 °F 75% 29.76 in 2.5 mi NNW 4.6 mph - 0.00 in Snow Light Snow
10:18 AM -0.4 °F -12.0 °F -5.8 °F 78% 29.68 in 1.0 mi NNW 5.8 mph - N/A Snow Light Snow
10:53 AM -0.0 °F -9.9 °F -5.1 °F 79% 29.73 in 1.5 mi NNW 4.6 mph - N/A Snow Light Snow
11:53 AM 1.0 °F - -4.0 °F 79% 29.73 in 0.8 mi Calm Calm - N/A Snow Light Snow
12:53 PM 1.9 °F -9.2 °F -2.9 °F 80% 29.71 in 0.8 mi NNW 5.8 mph - 0.00 in Snow Light Snow
1:31 PM -0.4 °F -13.4 °F -5.8 °F 78% 29.63 in 0.8 mi SE 6.9 mph - N/A Snow Light Snow
1:53 PM -2.9 °F -16.5 °F -8.0 °F 79% 29.71 in 0.8 mi SSE 6.9 mph - N/A Snow Light Snow
2:00 PM -2.2 °F -15.6 °F -7.6 °F 78% 29.64 in 1.2 mi SSE 6.9 mph - N/A Snow Light Snow
2:29 PM -2.2 °F -16.8 °F -7.6 °F 78% 29.63 in 0.2 mi SSE 8.1 mph - N/A Fog , Snow Heavy Snow
2:53 PM -2.9 °F -16.5 °F -8.0 °F 79% 29.71 in 0.8 mi SSE 6.9 mph - N/A Snow Light Snow
3:53 PM -2.9 °F -17.7 °F -8.0 °F 79% 29.71 in 0.8 mi SSE 8.1 mph - 0.01 in Snow Light Snow
4:53 PM -2.9 °F -17.7 °F -8.0 °F 79% 29.71 in 0.5 mi SSE 8.1 mph - N/A Fog , Snow Snow
5:53 PM -2.0 °F -15.4 °F -6.0 °F 83% 29.71 in 0.5 mi SSE 6.9 mph - N/A Fog , Snow Light Snow
6:07 PM -0.4 °F -15.7 °F -5.8 °F 78% 29.64 in 0.8 mi SSE 9.2 mph - N/A Snow Light Snow
6:27 PM -0.4 °F -14.7 °F -5.8 °F 78% 29.64 in 1.0 mi SSE 8.1 mph - N/A Snow Light Snow
6:53 PM -0.9 °F -15.3 °F -6.0 °F 79% 29.72 in 1.0 mi SSE 8.1 mph - N/A Snow Light Snow
7:49 PM -0.4 °F -14.7 °F -5.8 °F 78% 29.66 in 0.8 mi SSE 8.1 mph - N/A Snow Light Snow
7:53 PM -0.9 °F -15.3 °F -5.1 °F 83% 29.73 in 0.8 mi SSE 8.1 mph - N/A Snow Light Snow
8:20 PM -0.4 °F -14.7 °F -5.8 °F 78% 29.66 in 1.0 mi SSE 8.1 mph - N/A Snow Light Snow
8:53 PM -2.0 °F -16.6 °F -6.0 °F 83% 29.75 in 1.8 mi SSE 8.1 mph - N/A Snow Light Snow
9:02 PM -2.2 °F -15.6 °F -5.8 °F 85% 29.67 in 3.0 mi SSE 6.9 mph - N/A Snow Light Snow
9:29 PM -2.2 °F -15.6 °F -7.6 °F 78% 29.68 in 6.0 mi SSE 6.9 mph - N/A   Overcast
9:53 PM -2.9 °F -16.5 °F -7.1 °F 82% 29.76 in 6.0 mi SSE 6.9 mph - N/A Snow Light Snow
10:53 PM -4.0 °F -16.3 °F -9.0 °F 79% 29.76 in 4.0 mi SSE 5.8 mph - N/A Snow Light Snow
11:53 PM -7.1 °F -19.9 °F -11.0 °F 83% 29.78 in 9.0 mi SSE 5.8 mph - N/A Snow Light Snow